Time,TemperatureF,DewpointF,PressureIn,WindDirection,WindDirectionDegrees,WindSpeedMPH,WindSpeedGustMPH,Humidity,HourlyPrecipIn,Conditions,Clouds,dailyrainin,SoftwareType,DateUTC
2013-11-12 00:00:00,49.7,24.5,30.10,SSW,208,0.0,3.0,37,0.00,,,0.00,VWS V14.01,2013-11-12 05:00:00,
2013-11-12 00:01:00,49.7,24.5,30.10,SW,217,3.0,3.0,37,0.00,,,0.00,VWS V14.01,2013-11-12 05:01:00,
2013-11-12 00:02:00,49.8,24.6,30.09,SSW,203,0.0,3.0,37,0.00,,,0.00,VWS V14.01,2013-11-12 05:02:00,
2013-11-12 00:03:00,49.8,25.2,30.09,SW,228,1.0,3.0,38,0.00,,,0.00,VWS V14.01,2013-11-12 05:03:00,
2013-11-12 00:08:00,50.1,25.5,30.09,SSW,201,1.0,3.0,38,0.00,,,0.00,VWS V14.01,2013-11-12 05:08:00,
2013-11-12 00:13:00,50.2,26.2,30.09,WSW,240,0.0,3.0,39,0.00,,,0.00,VWS V14.01,2013-11-12 05:13:00,
2013-11-12 00:18:00,50.1,26.7,30.09,WSW,239,0.0,3.0,40,0.00,,,0.00,VWS V14.01,2013-11-12 05:18:00,
2013-11-12 00:23:00,49.9,26.0,30.09,WSW,239,0.0,3.0,39,0.00,,,0.00,VWS V14.01,2013-11-12 05:23:00,
2013-11-12 00:28:00,49.8,25.9,30.09,East,85,0.0,3.0,39,0.00,,,0.00,VWS V14.01,2013-11-12 05:28:00,
2013-11-12 00:30:00,49.8,25.9,30.09,East,84,0.0,3.0,39,0.00,,,0.00,VWS V14.01,2013-11-12 05:30:00,
2013-11-12 00:33:00,49.8,25.9,30.09,East,84,0.0,0.0,39,0.00,,,0.00,VWS V14.01,2013-11-12 05:33:00,
2013-11-12 00:38:00,49.7,26.4,30.09,SSE,154,0.0,1.0,40,0.00,,,0.00,VWS V14.01,2013-11-12 05:38:00,
2013-11-12 00:43:00,49.7,26.4,30.09,SSE,153,1.0,2.0,40,0.00,,,0.00,VWS V14.01,2013-11-12 05:43:00,
2013-11-12 00:48:00,50.1,26.1,30.09,ESE,114,1.0,3.0,39,0.00,,,0.00,VWS V14.01,2013-11-12 05:48:00,
2013-11-12 00:53:00,50.3,26.3,30.08,ENE,71,2.0,4.0,39,0.00,,,0.00,VWS V14.01,2013-11-12 05:53:00,
2013-11-12 00:58:00,50.4,26.4,30.08,SE,126,0.0,4.0,39,0.00,,,0.00,VWS V14.01,2013-11-12 05:58:00,
2013-11-12 01:00:00,50.4,26.4,30.08,ESE,102,1.0,4.0,39,0.00,,,0.00,VWS V14.01,2013-11-12 06:00:00,
2013-11-12 01:03:00,50.4,26.4,30.08,ESE,115,2.0,3.0,39,0.00,,,0.00,VWS V14.01,2013-11-12 06:03:00,
2013-11-12 01:08:00,50.2,26.8,30.08,SE,126,2.0,5.0,40,0.00,,,0.00,VWS V14.01,2013-11-12 06:08:00,
2013-11-12 01:13:00,50.2,26.8,30.08,ESE,121,1.0,5.0,40,0.00,,,0.00,VWS V14.01,2013-11-12 06:13:00,
2013-11-12 01:18:00,50.0,26.6,30.08,SE,134,1.0,5.0,40,0.00,,,0.00,VWS V14.01,2013-11-12 06:18:00,
2013-11-12 01:23:00,49.8,27.1,30.08,SSW,203,0.0,5.0,41,0.00,,,0.00,VWS V14.01,2013-11-12 06:23:00,
2013-11-12 01:28:00,49.7,27.0,30.07,SSW,192,0.0,5.0,41,0.00,,,0.00,VWS V14.01,2013-11-12 06:28:00,
2013-11-12 01:30:00,49.7,27.0,30.07,South,191,0.0,5.0,41,0.00,,,0.00,VWS V14.01,2013-11-12 06:30:00,
2013-11-12 01:33:00,49.5,26.8,30.07,SSW,192,0.0,1.0,41,0.00,,,0.00,VWS V14.01,2013-11-12 06:33:00,
2013-11-12 01:38:00,49.2,26.5,30.07,SSW,192,0.0,1.0,41,0.00,,,0.00,VWS V14.01,2013-11-12 06:38:00,
2013-11-12 01:43:00,49.1,27.0,30.07,WSW,255,0.0,1.0,42,0.00,,,0.00,VWS V14.01,2013-11-12 06:43:00,
2013-11-12 01:48:00,48.8,26.7,30.07,WSW,258,0.0,1.0,42,0.00,,,0.00,VWS V14.01,2013-11-12 06:48:00,
2013-11-12 01:53:00,48.8,26.7,30.07,WSW,238,1.0,3.0,42,0.00,,,0.00,VWS V14.01,2013-11-12 06:53:00,
2013-11-12 01:58:00,48.7,26.6,30.07,WSW,238,1.0,3.0,42,0.00,,,0.00,VWS V14.01,2013-11-12 06:58:00,
2013-11-12 02:00:00,48.7,26.6,30.07,WSW,238,0.0,3.0,42,0.00,,,0.00,VWS V14.01,2013-11-12 07:00:00,
2013-11-12 02:03:00,48.6,26.6,30.07,WSW,238,1.0,1.0,42,0.00,,,0.00,VWS V14.01,2013-11-12 07:03:00,
2013-11-12 02:08:00,48.5,26.5,30.07,WSW,237,0.0,1.0,42,0.00,,,0.00,VWS V14.01,2013-11-12 07:08:00,
2013-11-12 02:13:00,48.4,27.0,30.07,WSW,238,0.0,1.0,43,0.00,,,0.00,VWS V14.01,2013-11-12 07:13:00,
2013-11-12 02:19:00,48.3,26.9,30.07,WSW,238,0.0,1.0,43,0.00,,,0.00,VWS V14.01,2013-11-12 07:19:00,
2013-11-12 02:24:00,48.2,27.3,30.06,East,94,1.0,2.0,44,0.00,,,0.00,VWS V14.01,2013-11-12 07:24:00,
2013-11-12 02:29:00,48.1,27.2,30.06,South,173,0.0,2.0,44,0.00,,,0.00,VWS V14.01,2013-11-12 07:29:00,
2013-11-12 02:30:00,48.1,27.2,30.07,SE,138,1.0,2.0,44,0.00,,,0.00,VWS V14.01,2013-11-12 07:30:00,
2013-11-12 02:34:00,48.1,26.7,30.07,SE,141,2.0,4.0,43,0.00,,,0.00,VWS V14.01,2013-11-12 07:34:00,
2013-11-12 02:39:00,48.4,26.4,30.07,SE,146,3.0,5.0,42,0.00,,,0.00,VWS V14.01,2013-11-12 07:39:00,
2013-11-12 02:44:00,48.8,26.7,30.07,ESE,103,2.0,5.0,42,0.00,,,0.00,VWS V14.01,2013-11-12 07:44:00,
2013-11-12 02:49:00,48.9,26.8,30.06,SE,145,2.0,5.0,42,0.00,,,0.00,VWS V14.01,2013-11-12 07:49:00,
2013-11-12 02:54:00,48.8,26.7,30.06,East,90,2.0,5.0,42,0.00,,,0.00,VWS V14.01,2013-11-12 07:54:00,
2013-11-12 02:59:00,48.7,26.6,30.06,SE,126,1.0,5.0,42,0.00,,,0.00,VWS V14.01,2013-11-12 07:59:00,
2013-11-12 03:00:00,48.7,26.6,30.06,SE,143,2.0,5.0,42,0.00,,,0.00,VWS V14.01,2013-11-12 08:00:00,
2013-11-12 03:04:00,48.7,26.6,30.06,SE,143,2.0,3.0,42,0.00,,,0.00,VWS V14.01,2013-11-12 08:04:00,
2013-11-12 03:09:00,48.8,26.7,30.06,SE,129,1.0,7.0,42,0.00,,,0.00,VWS V14.01,2013-11-12 08:09:00,
2013-11-12 03:14:00,48.7,26.6,30.05,SE,124,2.0,7.0,42,0.00,,,0.00,VWS V14.01,2013-11-12 08:14:00,
2013-11-12 03:19:00,48.5,26.5,30.05,SE,127,1.0,7.0,42,0.00,,,0.00,VWS V14.01,2013-11-12 08:19:00,
2013-11-12 03:24:00,48.3,26.9,30.05,SE,136,1.0,7.0,43,0.00,,,0.00,VWS V14.01,2013-11-12 08:24:00,
2013-11-12 03:29:00,48.2,26.8,30.05,SE,143,1.0,7.0,43,0.00,,,0.00,VWS V14.01,2013-11-12 08:29:00,
2013-11-12 03:30:00,48.2,26.8,30.05,SE,143,1.0,7.0,43,0.00,,,0.00,VWS V14.01,2013-11-12 08:30:00,
2013-11-12 03:34:00,48.1,26.7,30.05,SE,145,1.0,2.0,43,0.00,,,0.00,VWS V14.01,2013-11-12 08:34:00,
2013-11-12 03:39:00,48.0,26.6,30.05,SSE,150,1.0,3.0,43,0.00,,,0.00,VWS V14.01,2013-11-12 08:39:00,
2013-11-12 03:44:00,48.1,26.1,30.05,SE,143,2.0,3.0,42,0.00,,,0.00,VWS V14.01,2013-11-12 08:44:00,
2013-11-12 03:49:00,48.2,25.6,30.05,SE,135,2.0,3.0,41,0.00,,,0.00,VWS V14.01,2013-11-12 08:49:00,
2013-11-12 03:54:00,48.3,25.1,30.05,SE,139,1.0,3.0,40,0.00,,,0.00,VWS V14.01,2013-11-12 08:54:00,
2013-11-12 03:59:00,48.5,24.1,30.04,SE,132,1.0,3.0,38,0.00,,,0.00,VWS V14.01,2013-11-12 08:59:00,
2013-11-12 04:00:00,48.5,24.1,30.04,SE,132,1.0,3.0,38,0.00,,,0.00,VWS V14.01,2013-11-12 09:00:00,
2013-11-12 04:04:00,48.7,24.2,30.04,SE,129,0.0,3.0,38,0.00,,,0.00,VWS V14.01,2013-11-12 09:04:00,
2013-11-12 04:09:00,48.7,21.6,30.04,SSE,156,1.0,3.0,34,0.00,,,0.00,VWS V14.01,2013-11-12 09:09:00,
2013-11-12 04:14:00,48.7,24.2,30.03,ESE,110,1.0,3.0,38,0.00,,,0.00,VWS V14.01,2013-11-12 09:14:00,
2013-11-12 04:19:00,48.5,23.4,30.03,ESE,120,1.0,3.0,37,0.00,,,0.00,VWS V14.01,2013-11-12 09:19:00,
2013-11-12 04:25:00,48.4,22.7,30.03,SE,145,1.0,3.0,36,0.00,,,0.00,VWS V14.01,2013-11-12 09:25:00,
2013-11-12 04:30:00,48.3,22.6,30.03,SSE,147,3.0,4.0,36,0.00,,,0.00,VWS V14.01,2013-11-12 09:30:00,
2013-11-12 04:35:00,48.4,22.0,30.03,SE,134,1.0,3.0,35,0.00,,,0.00,VWS V14.01,2013-11-12 09:35:00,
2013-11-12 04:40:00,48.4,21.3,30.03,SSE,150,2.0,3.0,34,0.00,,,0.00,VWS V14.01,2013-11-12 09:40:00,
2013-11-12 04:45:00,48.4,21.3,30.03,SE,129,1.0,3.0,34,0.00,,,0.00,VWS V14.01,2013-11-12 09:45:00,
2013-11-12 04:50:00,48.3,20.5,30.02,SSE,150,1.0,3.0,33,0.00,,,0.00,VWS V14.01,2013-11-12 09:50:00,
2013-11-12 04:55:00,48.3,21.2,30.02,SE,146,2.0,3.0,34,0.00,,,0.00,VWS V14.01,2013-11-12 09:55:00,
2013-11-12 05:00:00,48.3,20.5,30.03,SE,141,2.0,3.0,33,0.00,,,0.00,VWS V14.01,2013-11-12 10:00:00,
2013-11-12 05:05:00,48.5,20.7,30.02,SE,131,0.0,2.0,33,0.00,,,0.00,VWS V14.01,2013-11-12 10:05:00,
2013-11-12 05:10:00,48.6,21.5,30.02,SE,145,2.0,2.0,34,0.00,,,0.00,VWS V14.01,2013-11-12 10:10:00,
2013-11-12 05:15:00,48.8,21.7,30.02,SSE,153,1.0,2.0,34,0.00,,,0.00,VWS V14.01,2013-11-12 10:15:00,
2013-11-12 05:20:00,49.0,21.9,30.03,SE,137,1.0,3.0,34,0.00,,,0.00,VWS V14.01,2013-11-12 10:20:00,
2013-11-12 05:25:00,49.1,22.0,30.03,SSE,155,1.0,3.0,34,0.00,,,0.00,VWS V14.01,2013-11-12 10:25:00,
2013-11-12 05:30:00,49.1,22.0,30.03,SSE,164,0.0,1.0,34,0.00,,,0.00,VWS V14.01,2013-11-12 10:30:00,
2013-11-12 05:35:00,49.1,22.0,30.02,SSE,149,0.0,3.0,34,0.00,,,0.00,VWS V14.01,2013-11-12 10:35:00,
2013-11-12 05:40:00,49.0,21.9,30.02,South,186,0.0,3.0,34,0.00,,,0.00,VWS V14.01,2013-11-12 10:40:00,
2013-11-12 05:45:00,49.0,21.9,30.03,SE,139,2.0,3.0,34,0.00,,,0.00,VWS V14.01,2013-11-12 10:45:00,
2013-11-12 05:50:00,49.0,21.9,30.03,SW,225,1.0,5.0,34,0.00,,,0.00,VWS V14.01,2013-11-12 10:50:00,
2013-11-12 05:55:00,48.9,21.8,30.03,SW,232,2.0,5.0,34,0.00,,,0.00,VWS V14.01,2013-11-12 10:55:00,
2013-11-12 06:00:00,48.9,21.1,30.03,SW,217,2.0,3.0,33,0.00,,,0.00,VWS V14.01,2013-11-12 11:00:00,
2013-11-12 06:05:00,48.8,21.0,30.02,SSW,204,2.0,4.0,33,0.00,,,0.00,VWS V14.01,2013-11-12 11:05:00,
2013-11-12 06:10:00,48.6,20.8,30.02,SSW,212,1.0,4.0,33,0.00,,,0.00,VWS V14.01,2013-11-12 11:10:00,
2013-11-12 06:15:00,48.5,20.7,30.02,SW,214,1.0,4.0,33,0.00,,,0.00,VWS V14.01,2013-11-12 11:15:00,
2013-11-12 06:20:00,48.3,21.2,30.02,SSW,205,0.0,4.0,34,0.00,,,0.00,VWS V14.01,2013-11-12 11:20:00,
2013-11-12 06:25:00,48.1,21.1,30.02,SSW,195,2.0,4.0,34,0.00,,,0.00,VWS V14.01,2013-11-12 11:25:00,
2013-11-12 06:30:00,48.1,21.1,30.02,SSW,197,2.0,2.0,34,0.00,,,0.00,VWS V14.01,2013-11-12 11:30:00,
2013-11-12 06:35:00,48.1,21.1,30.02,South,180,4.0,5.0,34,0.00,,,0.00,VWS V14.01,2013-11-12 11:35:00,
2013-11-12 06:40:00,48.2,21.2,30.02,South,191,3.0,5.0,34,0.00,,,0.00,VWS V14.01,2013-11-12 11:40:00,
2013-11-12 06:46:00,48.1,21.1,30.02,SSE,162,3.0,5.0,34,0.00,,,0.00,VWS V14.01,2013-11-12 11:46:00,
2013-11-12 06:51:00,48.1,21.1,30.02,South,174,2.0,5.0,34,0.00,,,0.00,VWS V14.01,2013-11-12 11:51:00,
2013-11-12 06:56:00,48.1,21.1,30.02,SSW,205,3.0,6.0,34,0.00,,,0.00,VWS V14.01,2013-11-12 11:56:00,
2013-11-12 07:00:00,48.1,21.1,30.02,South,183,4.0,6.0,34,0.00,,,0.00,VWS V14.01,2013-11-12 12:00:00,
2013-11-12 07:01:00,48.1,21.8,30.02,SW,231,4.0,5.0,35,0.00,,,0.00,VWS V14.01,2013-11-12 12:01:00,
2013-11-12 07:06:00,48.1,21.1,30.02,SSE,155,0.0,5.0,34,0.00,,,0.00,VWS V14.01,2013-11-12 12:06:00,
2013-11-12 07:11:00,48.1,21.1,30.02,West,281,2.0,5.0,34,0.00,,,0.00,VWS V14.01,2013-11-12 12:11:00,
2013-11-12 07:16:00,48.0,21.0,30.02,SSE,160,1.0,5.0,34,0.00,,,0.00,VWS V14.01,2013-11-12 12:16:00,
2013-11-12 07:21:00,48.1,21.8,30.03,SW,228,1.0,5.0,35,0.00,,,0.00,VWS V14.01,2013-11-12 12:21:00,
2013-11-12 07:26:00,48.1,21.8,30.03,SSE,155,1.0,5.0,35,0.00,,,0.00,VWS V14.01,2013-11-12 12:26:00,
2013-11-12 07:30:00,48.1,21.8,30.03,SSE,156,1.0,5.0,35,0.00,,,0.00,VWS V14.01,2013-11-12 12:30:00,
2013-11-12 07:31:00,48.1,21.8,30.03,SE,146,2.0,4.0,35,0.00,,,0.00,VWS V14.01,2013-11-12 12:31:00,
2013-11-12 07:36:00,48.1,21.8,30.03,SSE,148,2.0,5.0,35,0.00,,,0.00,VWS V14.01,2013-11-12 12:36:00,
2013-11-12 07:41:00,48.2,21.9,30.03,East,101,1.0,5.0,35,0.00,,,0.00,VWS V14.01,2013-11-12 12:41:00,
2013-11-12 07:46:00,48.2,22.5,30.03,SSW,195,0.0,5.0,36,0.00,,,0.00,VWS V14.01,2013-11-12 12:46:00,
2013-11-12 07:51:00,48.5,23.4,30.03,South,190,1.0,5.0,37,0.00,,,0.00,VWS V14.01,2013-11-12 12:51:00,
2013-11-12 07:56:00,48.3,23.9,30.03,SSW,202,0.0,5.0,38,0.00,,,0.00,VWS V14.01,2013-11-12 12:56:00,
2013-11-12 08:00:00,48.4,24.6,30.03,SW,224,0.0,5.0,39,0.00,,,0.00,VWS V14.01,2013-11-12 13:00:00,
2013-11-12 08:01:00,48.5,24.7,30.03,WSW,245,0.0,2.0,39,0.00,,,0.00,VWS V14.01,2013-11-12 13:01:00,
2013-11-12 08:06:00,48.7,26.1,30.03,West,273,2.0,4.0,41,0.00,,,0.00,VWS V14.01,2013-11-12 13:06:00,
2013-11-12 08:11:00,48.9,26.8,30.03,WNW,283,2.0,4.0,42,0.00,,,0.00,VWS V14.01,2013-11-12 13:11:00,
2013-11-12 08:16:00,48.7,27.8,30.03,SW,225,2.0,5.0,44,0.00,,,0.00,VWS V14.01,2013-11-12 13:16:00,
2013-11-12 08:21:00,48.2,28.4,30.03,WSW,257,1.0,7.0,46,0.00,,,0.00,VWS V14.01,2013-11-12 13:21:00,
2013-11-12 08:26:00,47.8,28.6,30.03,SSW,207,4.0,7.0,47,0.00,,,0.00,VWS V14.01,2013-11-12 13:26:00,
2013-11-12 08:30:00,47.5,28.8,30.03,SSW,208,3.0,7.0,48,0.00,,,0.00,VWS V14.01,2013-11-12 13:30:00,
2013-11-12 08:31:00,47.4,29.2,30.03,SW,225,2.0,4.0,49,0.00,,,0.00,VWS V14.01,2013-11-12 13:31:00,
2013-11-12 08:36:00,47.1,29.4,30.04,SW,226,5.0,5.0,50,0.00,,,0.00,VWS V14.01,2013-11-12 13:36:00,
2013-11-12 08:41:00,46.6,29.5,30.04,West,269,2.0,8.0,51,0.00,,,0.00,VWS V14.01,2013-11-12 13:41:00,
2013-11-12 08:46:00,46.1,29.9,30.04,West,263,1.0,8.0,53,0.00,,,0.00,VWS V14.01,2013-11-12 13:46:00,
2013-11-12 08:51:00,45.7,30.5,30.05,WNW,288,4.0,9.0,55,0.00,,,0.00,VWS V14.01,2013-11-12 13:51:00,
2013-11-12 08:56:00,45.3,30.5,30.04,NW,311,1.0,10.0,56,0.00,,,0.00,VWS V14.01,2013-11-12 13:56:00,
2013-11-12 09:00:00,45.2,30.9,30.05,SW,221,1.0,10.0,57,0.00,,,0.00,VWS V14.01,2013-11-12 14:00:00,
2013-11-12 09:02:00,45.2,30.9,30.05,West,278,1.0,4.0,57,0.00,,,0.00,VWS V14.01,2013-11-12 14:02:00,
2013-11-12 09:07:00,45.2,30.9,30.05,NW,311,2.0,4.0,57,0.00,,,0.00,VWS V14.01,2013-11-12 14:07:00,
2013-11-12 09:12:00,45.4,31.5,30.05,WSW,248,0.0,5.0,58,0.00,,,0.00,VWS V14.01,2013-11-12 14:12:00,
2013-11-12 09:17:00,45.3,31.4,30.05,NW,311,3.0,7.0,58,0.00,,,0.00,VWS V14.01,2013-11-12 14:17:00,
2013-11-12 09:22:00,45.0,32.0,30.05,WSW,243,2.0,7.0,60,0.00,,,0.00,VWS V14.01,2013-11-12 14:22:00,
2013-11-12 09:27:00,44.8,32.2,30.05,SSW,194,3.0,7.0,61,0.00,,,0.00,VWS V14.01,2013-11-12 14:27:00,
2013-11-12 09:30:00,44.6,32.4,30.05,West,260,2.0,7.0,62,0.00,,,0.00,VWS V14.01,2013-11-12 14:30:00,
2013-11-12 09:32:00,44.5,32.7,30.05,ESE,115,3.0,5.0,63,0.00,,,0.00,VWS V14.01,2013-11-12 14:32:00,
2013-11-12 09:37:00,44.6,32.8,30.05,South,191,1.0,10.0,63,0.00,,,0.00,VWS V14.01,2013-11-12 14:37:00,
2013-11-12 09:42:00,44.6,33.2,30.05,WSW,250,2.0,10.0,64,0.00,,,0.00,VWS V14.01,2013-11-12 14:42:00,
2013-11-12 09:47:00,45.1,33.7,30.05,ENE,78,4.0,10.0,64,0.00,,,0.00,VWS V14.01,2013-11-12 14:47:00,
2013-11-12 09:52:00,45.5,33.7,30.05,SSE,154,4.0,10.0,63,0.00,,,0.00,VWS V14.01,2013-11-12 14:52:00,
2013-11-12 09:57:00,45.2,33.8,30.06,SE,136,6.0,10.0,64,0.00,,,0.00,VWS V14.01,2013-11-12 14:57:00,
2013-11-12 10:00:00,45.0,33.6,30.05,North,356,2.0,10.0,64,0.00,,,0.00,VWS V14.01,2013-11-12 15:00:00,
2013-11-12 10:02:00,45.0,33.6,30.05,East,84,3.0,6.0,64,0.00,,,0.00,VWS V14.01,2013-11-12 15:02:00,
2013-11-12 10:07:00,45.2,34.2,30.06,West,274,0.0,11.0,65,0.00,,,0.00,VWS V14.01,2013-11-12 15:07:00,
2013-11-12 10:12:00,45.3,33.9,30.06,WSW,239,2.0,11.0,64,0.00,,,0.00,VWS V14.01,2013-11-12 15:12:00,
2013-11-12 10:17:00,45.7,34.6,30.06,West,260,2.0,11.0,65,0.00,,,0.00,VWS V14.01,2013-11-12 15:17:00,
2013-11-12 10:22:00,46.1,35.0,30.06,SSW,203,3.0,11.0,65,0.00,,,0.00,VWS V14.01,2013-11-12 15:22:00,
2013-11-12 10:27:00,46.6,35.9,30.06,ENE,77,5.0,11.0,66,0.00,,,0.00,VWS V14.01,2013-11-12 15:27:00,
2013-11-12 10:30:00,47.1,36.3,30.06,WSW,239,1.0,11.0,66,0.00,,,0.00,VWS V14.01,2013-11-12 15:30:00,
2013-11-12 10:32:00,47.8,36.6,30.06,ESE,105,6.0,6.0,65,0.00,,,0.00,VWS V14.01,2013-11-12 15:32:00,
2013-11-12 10:37:00,49.4,37.3,30.06,NNW,347,1.0,7.0,63,0.00,,,0.00,VWS V14.01,2013-11-12 15:37:00,
2013-11-12 10:42:00,48.6,36.6,30.06,SSW,192,2.0,9.0,63,0.00,,,0.00,VWS V14.01,2013-11-12 15:42:00,
2013-11-12 10:47:00,47.6,36.8,30.06,WSW,238,2.0,9.0,66,0.00,,,0.00,VWS V14.01,2013-11-12 15:47:00,
2013-11-12 10:52:00,47.1,37.1,30.07,North,11,3.0,9.0,68,0.00,,,0.00,VWS V14.01,2013-11-12 15:52:00,
2013-11-12 10:57:00,46.5,37.3,30.06,NW,321,1.0,9.0,70,0.00,,,0.00,VWS V14.01,2013-11-12 15:57:00,
2013-11-12 11:00:00,45.5,36.7,30.06,South,190,2.0,9.0,71,0.00,,,0.00,VWS V14.01,2013-11-12 16:00:00,
2013-11-12 11:02:00,44.6,36.5,30.06,SW,214,1.0,6.0,73,0.00,,,0.00,VWS V14.01,2013-11-12 16:02:00,
2013-11-12 11:07:00,43.0,35.6,30.06,WSW,256,2.0,6.0,75,0.00,,,0.00,VWS V14.01,2013-11-12 16:07:00,
2013-11-12 11:12:00,41.4,35.1,30.06,East,94,3.0,9.0,78,0.00,,,0.00,VWS V14.01,2013-11-12 16:12:00,
2013-11-12 11:17:00,40.2,34.8,30.07,SW,233,1.0,10.0,81,0.00,,,0.00,VWS V14.01,2013-11-12 16:17:00,
2013-11-12 11:23:00,39.5,34.8,30.06,SW,232,2.0,10.0,83,0.00,,,0.00,VWS V14.01,2013-11-12 16:23:00,
2013-11-12 11:28:00,39.2,34.8,30.06,SW,233,5.0,10.0,84,0.00,,,0.00,VWS V14.01,2013-11-12 16:28:00,
2013-11-12 11:30:00,39.0,34.6,30.05,ESE,121,3.0,10.0,84,0.00,,,0.00,VWS V14.01,2013-11-12 16:30:00,
2013-11-12 11:33:00,38.8,34.1,30.06,SSW,195,2.0,9.0,83,0.00,,,0.00,VWS V14.01,2013-11-12 16:33:00,
2013-11-12 11:38:00,38.4,33.4,30.06,SW,229,6.0,16.0,82,0.00,,,0.00,VWS V14.01,2013-11-12 16:38:00,
2013-11-12 11:43:00,38.0,33.0,30.06,WNW,295,3.0,16.0,82,0.00,,,0.00,VWS V14.01,2013-11-12 16:43:00,
2013-11-12 11:48:00,37.4,32.4,30.06,East,94,3.0,16.0,82,0.00,,,0.00,VWS V14.01,2013-11-12 16:48:00,
2013-11-12 11:53:00,37.3,32.3,30.06,WNW,295,2.0,16.0,82,0.00,,,0.00,VWS V14.01,2013-11-12 16:53:00,
2013-11-12 11:58:00,36.9,31.9,30.07,ENE,75,2.0,16.0,82,0.00,,,0.00,VWS V14.01,2013-11-12 16:58:00,
2013-11-12 12:00:00,36.9,31.9,30.06,NW,316,3.0,16.0,82,0.00,,,0.00,VWS V14.01,2013-11-12 17:00:00,
2013-11-12 12:03:00,36.8,31.8,30.06,NNW,328,2.0,13.0,82,0.00,,,0.00,VWS V14.01,2013-11-12 17:03:00,
2013-11-12 12:08:00,36.3,31.0,30.07,West,264,2.0,13.0,81,0.00,,,0.00,VWS V14.01,2013-11-12 17:08:00,
2013-11-12 12:13:00,36.0,30.8,30.06,SSW,194,4.0,13.0,81,0.00,,,0.00,VWS V14.01,2013-11-12 17:13:00,
2013-11-12 12:18:00,35.7,30.5,30.07,NNE,12,0.0,17.0,81,0.00,,,0.00,VWS V14.01,2013-11-12 17:18:00,
2013-11-12 12:23:00,35.8,30.2,30.06,WNW,300,4.0,17.0,80,0.00,,,0.00,VWS V14.01,2013-11-12 17:23:00,
2013-11-12 12:28:00,35.9,30.3,30.07,WNW,297,0.0,17.0,80,0.00,,,0.00,VWS V14.01,2013-11-12 17:28:00,
2013-11-12 12:30:00,35.9,30.3,30.07,SW,224,1.0,17.0,80,0.00,,,0.00,VWS V14.01,2013-11-12 17:30:00,
2013-11-12 12:33:00,35.9,30.3,30.07,South,169,4.0,7.0,80,0.00,,,0.00,VWS V14.01,2013-11-12 17:33:00,
2013-11-12 12:38:00,36.0,30.4,30.07,WNW,302,0.0,7.0,80,0.00,,,0.00,VWS V14.01,2013-11-12 17:38:00,
2013-11-12 12:43:00,35.9,30.3,30.07,WNW,302,3.0,7.0,80,0.00,,,0.00,VWS V14.01,2013-11-12 17:43:00,
2013-11-12 12:48:00,36.0,30.4,30.08,East,84,6.0,7.0,80,0.00,,,0.00,VWS V14.01,2013-11-12 17:48:00,
2013-11-12 12:53:00,36.0,30.4,30.08,East,101,1.0,12.0,80,0.00,,,0.00,VWS V14.01,2013-11-12 17:53:00,
2013-11-12 12:58:00,36.4,31.1,30.07,WSW,257,2.0,12.0,81,0.00,,,0.00,VWS V14.01,2013-11-12 17:58:00,
2013-11-12 13:00:00,36.5,31.2,30.07,East,101,7.0,12.0,81,0.00,,,0.00,VWS V14.01,2013-11-12 18:00:00,
2013-11-12 13:03:00,37.2,31.9,30.07,WSW,257,2.0,6.0,81,0.00,,,0.00,VWS V14.01,2013-11-12 18:03:00,
2013-11-12 13:08:00,37.4,31.2,30.07,WNW,286,3.0,7.0,78,0.00,,,0.00,VWS V14.01,2013-11-12 18:08:00,
2013-11-12 13:13:00,38.3,32.4,30.07,SE,134,2.0,7.0,79,0.00,,,0.00,VWS V14.01,2013-11-12 18:13:00,
2013-11-12 13:19:00,39.0,31.4,30.08,East,96,2.0,7.0,74,0.00,,,0.00,VWS V14.01,2013-11-12 18:19:00,
2013-11-12 13:24:00,38.4,30.9,30.08,NNW,330,1.0,7.0,74,0.00,,,0.00,VWS V14.01,2013-11-12 18:24:00,
2013-11-12 13:29:00,37.6,30.1,30.08,East,80,8.0,12.0,74,0.00,,,0.00,VWS V14.01,2013-11-12 18:29:00,
2013-11-12 13:30:00,37.1,29.6,30.08,NNW,345,3.0,12.0,74,0.00,,,0.00,VWS V14.01,2013-11-12 18:30:00,
2013-11-12 13:34:00,36.8,29.6,30.07,SW,221,3.0,8.0,75,0.00,,,0.00,VWS V14.01,2013-11-12 18:34:00,
2013-11-12 13:39:00,36.1,28.6,30.08,NW,315,2.0,11.0,74,0.00,,,0.00,VWS V14.01,2013-11-12 18:39:00,
2013-11-12 13:44:00,36.0,29.2,30.07,WNW,285,3.0,11.0,76,0.00,,,0.00,VWS V14.01,2013-11-12 18:44:00,
2013-11-12 13:49:00,35.5,28.7,30.08,WSW,238,3.0,11.0,76,0.00,,,0.00,VWS V14.01,2013-11-12 18:49:00,
2013-11-12 13:54:00,35.2,29.0,30.08,SSE,160,5.0,11.0,78,0.00,,,0.00,VWS V14.01,2013-11-12 18:54:00,
2013-11-12 13:59:00,35.5,29.0,30.08,WNW,297,4.0,11.0,77,0.00,,,0.00,VWS V14.01,2013-11-12 18:59:00,
2013-11-12 14:00:00,35.3,28.8,30.07,NNW,328,2.0,11.0,77,0.00,,,0.00,VWS V14.01,2013-11-12 19:00:00,
2013-11-12 14:04:00,35.0,28.9,30.08,NNE,18,3.0,7.0,78,0.00,,,0.00,VWS V14.01,2013-11-12 19:04:00,
2013-11-12 14:09:00,35.2,29.0,30.09,SSW,197,6.0,7.0,78,0.00,,,0.00,VWS V14.01,2013-11-12 19:09:00,
2013-11-12 14:14:00,34.5,28.7,30.08,NNE,25,1.0,9.0,79,0.00,,,0.00,VWS V14.01,2013-11-12 19:14:00,
2013-11-12 14:19:00,33.9,28.1,30.09,NNW,336,4.0,9.0,79,0.00,,,0.00,VWS V14.01,2013-11-12 19:19:00,
2013-11-12 14:24:00,34.1,28.9,30.08,East,83,1.0,9.0,81,0.00,,,0.00,VWS V14.01,2013-11-12 19:24:00,
2013-11-12 14:29:00,33.9,28.4,30.08,SSW,208,3.0,9.0,80,0.00,,,0.00,VWS V14.01,2013-11-12 19:29:00,
2013-11-12 14:30:00,33.8,28.3,30.08,West,262,0.0,9.0,80,0.00,,,0.00,VWS V14.01,2013-11-12 19:30:00,
2013-11-12 14:34:00,33.8,28.6,30.09,East,89,1.0,5.0,81,0.00,,,0.00,VWS V14.01,2013-11-12 19:34:00,
2013-11-12 14:39:00,34.0,28.5,30.09,ENE,72,2.0,7.0,80,0.00,,,0.00,VWS V14.01,2013-11-12 19:39:00,
2013-11-12 14:44:00,34.1,28.3,30.09,SSW,207,4.0,11.0,79,0.00,,,0.00,VWS V14.01,2013-11-12 19:44:00,
2013-11-12 14:49:00,33.7,28.2,30.09,NW,314,3.0,11.0,80,0.00,,,0.00,VWS V14.01,2013-11-12 19:49:00,
2013-11-12 14:54:00,33.1,27.9,30.09,NE,37,2.0,11.0,81,0.00,,,0.00,VWS V14.01,2013-11-12 19:54:00,
2013-11-12 14:59:00,33.1,27.9,30.09,SSW,211,2.0,11.0,81,0.00,,,0.00,VWS V14.01,2013-11-12 19:59:00,
2013-11-12 15:00:00,33.2,28.0,30.09,NNE,26,2.0,11.0,81,0.00,,,0.00,VWS V14.01,2013-11-12 20:00:00,
2013-11-12 15:04:00,33.2,27.7,30.09,ENE,77,2.0,6.0,80,0.00,,,0.00,VWS V14.01,2013-11-12 20:04:00,
2013-11-12 15:09:00,33.0,27.5,30.09,SW,233,2.0,10.0,80,0.00,,,0.00,VWS V14.01,2013-11-12 20:09:00,
2013-11-12 15:14:00,32.4,26.9,30.10,NE,52,2.0,10.0,80,0.00,,,0.00,VWS V14.01,2013-11-12 20:14:00,
2013-11-12 15:19:00,31.7,26.5,30.10,SE,146,5.0,10.0,81,0.00,,,0.00,VWS V14.01,2013-11-12 20:19:00,
2013-11-12 15:24:00,31.2,26.1,30.10,West,276,2.0,10.0,81,0.00,,,0.00,VWS V14.01,2013-11-12 20:24:00,
2013-11-12 15:29:00,30.8,26.3,30.10,SW,236,2.0,10.0,83,0.00,,,0.00,VWS V14.01,2013-11-12 20:29:00,
2013-11-12 15:30:00,30.7,26.2,30.11,SW,217,4.0,10.0,83,0.00,,,0.00,VWS V14.01,2013-11-12 20:30:00,
2013-11-12 15:35:00,30.5,26.2,30.11,SSW,194,0.0,8.0,84,0.00,,,0.00,VWS V14.01,2013-11-12 20:35:00,
2013-11-12 15:40:00,30.2,26.2,30.11,WNW,297,2.0,10.0,85,0.00,,,0.00,VWS V14.01,2013-11-12 20:40:00,
2013-11-12 15:45:00,29.6,25.6,30.12,WNW,298,4.0,10.0,85,0.00,,,0.00,VWS V14.01,2013-11-12 20:45:00,
2013-11-12 15:50:00,29.3,25.6,30.12,WSW,246,11.0,11.0,86,0.00,,,0.00,VWS V14.01,2013-11-12 20:50:00,
2013-11-12 15:55:00,29.0,25.6,30.12,ENE,62,3.0,11.0,87,0.00,,,0.00,VWS V14.01,2013-11-12 20:55:00,
2013-11-12 16:00:00,28.7,25.3,30.13,South,186,2.0,11.0,87,0.00,,,0.00,VWS V14.01,2013-11-12 21:00:00,
2013-11-12 16:05:00,28.2,25.1,30.12,WNW,299,4.0,15.0,88,0.00,,,0.00,VWS V14.01,2013-11-12 21:05:00,
2013-11-12 16:10:00,28.0,25.2,30.12,SE,125,0.0,15.0,89,0.00,,,0.00,VWS V14.01,2013-11-12 21:10:00,
2013-11-12 16:15:00,27.6,25.1,30.13,SSW,212,5.0,15.0,90,0.00,,,0.00,VWS V14.01,2013-11-12 21:15:00,
2013-11-12 16:20:00,27.3,24.8,30.13,SW,235,1.0,15.0,90,0.00,,,0.00,VWS V14.01,2013-11-12 21:20:00,
2013-11-12 16:25:00,27.0,24.5,30.14,SW,218,5.0,15.0,90,0.00,,,0.00,VWS V14.01,2013-11-12 21:25:00,
2013-11-12 16:30:00,26.8,24.5,30.15,NNE,22,3.0,15.0,91,0.00,,,0.00,VWS V14.01,2013-11-12 21:30:00,
2013-11-12 16:35:00,26.6,24.3,30.15,NNE,30,1.0,10.0,91,0.00,,,0.00,VWS V14.01,2013-11-12 21:35:00,
2013-11-12 16:40:00,26.5,24.2,30.15,NNE,27,4.0,11.0,91,0.00,,,0.00,VWS V14.01,2013-11-12 21:40:00,
2013-11-12 16:45:00,26.4,24.1,30.15,NNW,333,0.0,11.0,91,0.00,,,0.00,VWS V14.01,2013-11-12 21:45:00,
2013-11-12 16:50:00,26.3,24.0,30.14,SW,224,5.0,11.0,91,0.00,,,0.00,VWS V14.01,2013-11-12 21:50:00,
2013-11-12 16:55:00,26.2,24.2,30.15,NNW,330,0.0,12.0,92,0.00,,,0.00,VWS V14.01,2013-11-12 21:55:00,
2013-11-12 17:00:00,26.2,23.9,30.15,NNW,332,1.0,12.0,91,0.00,,,0.00,VWS V14.01,2013-11-12 22:00:00,
2013-11-12 17:05:00,26.0,24.0,30.16,SSW,210,2.0,6.0,92,0.00,,,0.00,VWS V14.01,2013-11-12 22:05:00,
2013-11-12 17:10:00,25.8,23.8,30.16,West,280,0.0,16.0,92,0.00,,,0.00,VWS V14.01,2013-11-12 22:10:00,
2013-11-12 17:15:00,25.5,23.2,30.16,West,276,2.0,16.0,91,0.00,,,0.00,VWS V14.01,2013-11-12 22:15:00,
2013-11-12 17:20:00,25.3,23.3,30.17,NW,307,2.0,16.0,92,0.00,,,0.00,VWS V14.01,2013-11-12 22:20:00,
2013-11-12 17:25:00,25.2,23.2,30.17,SE,131,3.0,16.0,92,0.00,,,0.00,VWS V14.01,2013-11-12 22:25:00,
2013-11-12 17:30:00,25.1,23.1,30.18,WSW,250,4.0,16.0,92,0.00,,,0.00,VWS V14.01,2013-11-12 22:30:00,
2013-11-12 17:35:00,24.8,22.8,30.18,NE,54,4.0,7.0,92,0.00,,,0.00,VWS V14.01,2013-11-12 22:35:00,
2013-11-12 17:40:00,24.7,22.7,30.19,South,186,0.0,10.0,92,0.00,,,0.00,VWS V14.01,2013-11-12 22:40:00,
2013-11-12 17:45:00,24.5,22.2,30.19,North,357,4.0,10.0,91,0.00,,,0.00,VWS V14.01,2013-11-12 22:45:00,
2013-11-12 17:50:00,24.3,21.5,30.20,West,278,6.0,12.0,89,0.00,,,0.00,VWS V14.01,2013-11-12 22:50:00,
2013-11-12 17:55:00,24.3,21.5,30.20,WSW,250,0.0,12.0,89,0.00,,,0.00,VWS V14.01,2013-11-12 22:55:00,
2013-11-12 18:00:00,24.2,20.9,30.20,South,179,2.0,12.0,87,0.00,,,0.00,VWS V14.01,2013-11-12 23:00:00,
2013-11-12 18:05:00,24.2,20.6,30.21,SW,226,3.0,9.0,86,0.00,,,0.00,VWS V14.01,2013-11-12 23:05:00,
2013-11-12 18:10:00,24.0,20.1,30.22,West,264,3.0,9.0,85,0.00,,,0.00,VWS V14.01,2013-11-12 23:10:00,
2013-11-12 18:15:00,23.9,19.8,30.22,West,266,3.0,9.0,84,0.00,,,0.00,VWS V14.01,2013-11-12 23:15:00,
2013-11-12 18:20:00,23.7,19.3,30.22,NW,309,4.0,12.0,83,0.00,,,0.00,VWS V14.01,2013-11-12 23:20:00,
2013-11-12 18:25:00,23.6,18.9,30.23,SSW,203,3.0,12.0,82,0.00,,,0.00,VWS V14.01,2013-11-12 23:25:00,
2013-11-12 18:30:00,23.5,18.8,30.23,SSW,207,4.0,12.0,82,0.00,,,0.00,VWS V14.01,2013-11-12 23:30:00,
2013-11-12 18:35:00,23.4,18.4,30.23,South,169,5.0,10.0,81,0.00,,,0.00,VWS V14.01,2013-11-12 23:35:00,
2013-11-12 18:40:00,23.3,18.1,30.24,SSE,150,3.0,14.0,80,0.00,,,0.00,VWS V14.01,2013-11-12 23:40:00,
2013-11-12 18:45:00,23.1,17.6,30.24,East,97,7.0,14.0,79,0.00,,,0.00,VWS V14.01,2013-11-12 23:45:00,
2013-11-12 18:50:00,23.0,17.2,30.25,East,79,5.0,14.0,78,0.00,,,0.00,VWS V14.01,2013-11-12 23:50:00,
2013-11-12 18:55:00,22.9,17.1,30.24,WNW,296,0.0,20.0,78,0.00,,,0.00,VWS V14.01,2013-11-12 23:55:00,
2013-11-12 19:00:00,22.8,17.0,30.25,North,356,2.0,20.0,78,0.00,,,0.00,VWS V14.01,2013-11-13 00:00:00,
2013-11-12 19:05:00,22.7,16.9,30.25,NNW,328,1.0,8.0,78,0.00,,,0.00,VWS V14.01,2013-11-13 00:05:00,
2013-11-12 19:10:00,22.6,16.2,30.26,West,273,1.0,8.0,76,0.00,,,0.00,VWS V14.01,2013-11-13 00:10:00,
2013-11-12 19:15:00,22.5,16.1,30.26,SW,236,1.0,11.0,76,0.00,,,0.00,VWS V14.01,2013-11-13 00:15:00,
2013-11-12 19:20:00,22.4,16.0,30.26,NW,317,0.0,13.0,76,0.00,,,0.00,VWS V14.01,2013-11-13 00:20:00,
2013-11-12 19:25:00,22.3,16.2,30.27,West,266,0.0,13.0,77,0.00,,,0.00,VWS V14.01,2013-11-13 00:25:00,
2013-11-12 19:30:00,22.3,16.5,30.27,NNW,330,1.0,2.0,78,0.00,,,0.00,VWS V14.01,2013-11-13 00:30:00,
2013-11-12 19:35:00,22.2,16.4,30.27,ENE,63,2.0,5.0,78,0.00,,,0.00,VWS V14.01,2013-11-13 00:35:00,
2013-11-12 19:40:00,22.3,16.8,30.27,North,353,2.0,7.0,79,0.00,,,0.00,VWS V14.01,2013-11-13 00:40:00,
2013-11-12 19:45:00,22.4,16.6,30.27,SE,129,3.0,7.0,78,0.00,,,0.00,VWS V14.01,2013-11-13 00:45:00,
2013-11-12 19:50:00,22.3,16.2,30.28,WNW,298,0.0,8.0,77,0.00,,,0.00,VWS V14.01,2013-11-13 00:50:00,
2013-11-12 19:55:00,22.0,15.9,30.28,SSW,198,1.0,11.0,77,0.00,,,0.00,VWS V14.01,2013-11-13 00:55:00,
2013-11-12 20:00:00,21.9,15.8,30.28,South,190,2.0,2.0,77,0.00,,,0.00,VWS V14.01,2013-11-13 01:00:00,
2013-11-12 20:05:00,21.7,15.3,30.29,SSW,206,2.0,13.0,76,0.00,,,0.00,VWS V14.01,2013-11-13 01:05:00,
2013-11-12 20:10:00,21.4,15.3,30.29,West,260,3.0,13.0,77,0.00,,,0.00,VWS V14.01,2013-11-13 01:10:00,
2013-11-12 20:15:00,21.3,15.2,30.29,ENE,68,2.0,19.0,77,0.00,,,0.00,VWS V14.01,2013-11-13 01:15:00,
2013-11-12 20:20:00,21.2,15.1,30.30,SSE,153,2.0,19.0,77,0.00,,,0.00,VWS V14.01,2013-11-13 01:20:00,
2013-11-12 20:25:00,21.1,15.0,30.31,SSW,194,3.0,19.0,77,0.00,,,0.00,VWS V14.01,2013-11-13 01:25:00,
2013-11-12 20:30:00,21.1,15.0,30.31,NW,317,4.0,4.0,77,0.00,,,0.00,VWS V14.01,2013-11-13 01:30:00,
2013-11-12 20:35:00,20.9,14.5,30.31,NE,47,6.0,12.0,76,0.00,,,0.00,VWS V14.01,2013-11-13 01:35:00,
2013-11-12 20:40:00,20.8,14.4,30.32,SSE,167,5.0,18.0,76,0.00,,,0.00,VWS V14.01,2013-11-13 01:40:00,
2013-11-12 20:45:00,20.8,14.4,30.32,NW,306,3.0,18.0,76,0.00,,,0.00,VWS V14.01,2013-11-13 01:45:00,
2013-11-12 20:50:00,20.7,14.4,30.32,West,277,2.0,18.0,76,0.00,,,0.00,VWS V14.01,2013-11-13 01:50:00,
2013-11-12 20:55:00,20.6,14.2,30.32,NE,54,2.0,18.0,76,0.00,,,0.00,VWS V14.01,2013-11-13 01:55:00,
2013-11-12 21:00:00,20.7,14.6,30.32,NNW,339,2.0,7.0,77,0.00,,,0.00,VWS V14.01,2013-11-13 02:00:00,
2013-11-12 21:05:00,20.7,14.4,30.33,SW,224,3.0,12.0,76,0.00,,,0.00,VWS V14.01,2013-11-13 02:05:00,
2013-11-12 21:10:00,20.7,14.4,30.33,East,94,1.0,12.0,76,0.00,,,0.00,VWS V14.01,2013-11-13 02:10:00,
2013-11-12 21:15:00,20.6,13.9,30.33,SSE,163,2.0,12.0,75,0.00,,,0.00,VWS V14.01,2013-11-13 02:15:00,
2013-11-12 21:20:00,20.6,14.2,30.34,South,185,3.0,12.0,76,0.00,,,0.00,VWS V14.01,2013-11-13 02:20:00,
2013-11-12 21:25:00,20.5,13.9,30.34,ENE,73,1.0,12.0,75,0.00,,,0.00,VWS V14.01,2013-11-13 02:25:00,
2013-11-12 21:30:00,20.4,14.1,30.34,SE,143,1.0,3.0,76,0.00,,,0.00,VWS V14.01,2013-11-13 02:30:00,
2013-11-12 21:35:00,20.4,14.1,30.34,North,352,0.0,8.0,76,0.00,,,0.00,VWS V14.01,2013-11-13 02:35:00,
2013-11-12 21:40:00,20.3,14.3,30.34,SW,221,2.0,8.0,77,0.00,,,0.00,VWS V14.01,2013-11-13 02:40:00,
2013-11-12 21:45:00,20.3,14.0,30.34,South,191,2.0,8.0,76,0.00,,,0.00,VWS V14.01,2013-11-13 02:45:00,
2013-11-12 21:50:00,20.2,14.2,30.35,ENE,62,1.0,8.0,77,0.00,,,0.00,VWS V14.01,2013-11-13 02:50:00,
2013-11-12 21:55:00,20.2,14.2,30.35,WSW,238,1.0,8.0,77,0.00,,,0.00,VWS V14.01,2013-11-13 02:55:00,
2013-11-12 22:00:00,20.2,14.2,30.35,ESE,120,2.0,4.0,77,0.00,,,0.00,VWS V14.01,2013-11-13 03:00:00,
2013-11-12 22:05:00,20.2,14.2,30.35,ENE,73,0.0,4.0,77,0.00,,,0.00,VWS V14.01,2013-11-13 03:05:00,
2013-11-12 22:10:00,20.1,14.1,30.35,WSW,256,1.0,4.0,77,0.00,,,0.00,VWS V14.01,2013-11-13 03:10:00,
2013-11-12 22:15:00,20.1,14.1,30.35,SSW,200,1.0,6.0,77,0.00,,,0.00,VWS V14.01,2013-11-13 03:15:00,
2013-11-12 22:20:00,20.1,14.4,30.35,South,172,1.0,11.0,78,0.00,,,0.00,VWS V14.01,2013-11-13 03:20:00,
2013-11-12 22:25:00,20.2,14.4,30.36,SW,217,1.0,11.0,78,0.00,,,0.00,VWS V14.01,2013-11-13 03:25:00,
2013-11-12 22:30:00,20.2,14.7,30.36,South,186,1.0,2.0,79,0.00,,,0.00,VWS V14.01,2013-11-13 03:30:00,
2013-11-12 22:35:00,20.1,14.4,30.36,SSW,211,2.0,7.0,78,0.00,,,0.00,VWS V14.01,2013-11-13 03:35:00,
2013-11-12 22:40:00,20.1,14.4,30.36,SSW,203,3.0,7.0,78,0.00,,,0.00,VWS V14.01,2013-11-13 03:40:00,
2013-11-12 22:45:00,20.1,14.4,30.36,NNE,15,1.0,8.0,78,0.00,,,0.00,VWS V14.01,2013-11-13 03:45:00,
2013-11-12 22:50:00,20.0,14.3,30.36,SW,231,1.0,8.0,78,0.00,,,0.00,VWS V14.01,2013-11-13 03:50:00,
2013-11-12 22:55:00,20.0,14.6,30.36,SE,146,3.0,8.0,79,0.00,,,0.00,VWS V14.01,2013-11-13 03:55:00,
2013-11-12 23:00:00,20.0,14.6,30.37,NE,51,0.0,1.0,79,0.00,,,0.00,VWS V14.01,2013-11-13 04:00:00,
2013-11-12 23:05:00,20.0,14.6,30.37,SSW,201,2.0,9.0,79,0.00,,,0.00,VWS V14.01,2013-11-13 04:05:00,
2013-11-12 23:10:00,19.9,14.4,30.37,NW,324,0.0,9.0,79,0.00,,,0.00,VWS V14.01,2013-11-13 04:10:00,
2013-11-12 23:15:00,20.0,14.6,30.37,ENE,67,4.0,9.0,79,0.00,,,0.00,VWS V14.01,2013-11-13 04:15:00,
2013-11-12 23:20:00,19.9,14.4,30.38,SW,224,1.0,9.0,79,0.00,,,0.00,VWS V14.01,2013-11-13 04:20:00,
2013-11-12 23:25:00,19.8,14.4,30.38,WSW,250,1.0,9.0,79,0.00,,,0.00,VWS V14.01,2013-11-13 04:25:00,
2013-11-12 23:30:00,19.7,14.3,30.38,NNE,28,1.0,2.0,79,0.00,,,0.00,VWS V14.01,2013-11-13 04:30:00,
2013-11-12 23:35:00,19.5,14.1,30.38,SSW,212,3.0,4.0,79,0.00,,,0.00,VWS V14.01,2013-11-13 04:35:00,
2013-11-12 23:40:00,19.4,14.0,30.38,West,276,1.0,7.0,79,0.00,,,0.00,VWS V14.01,2013-11-13 04:40:00,
2013-11-12 23:45:00,19.2,13.5,30.38,WNW,298,0.0,7.0,78,0.00,,,0.00,VWS V14.01,2013-11-13 04:45:00,
2013-11-12 23:50:00,19.1,13.7,30.38,SSW,193,2.0,7.0,79,0.00,,,0.00,VWS V14.01,2013-11-13 04:50:00,
2013-11-12 23:56:00,19.0,13.3,30.38,SSW,198,1.0,7.0,78,0.00,,,0.00,VWS V14.01,2013-11-13 04:56:00,